When you browse on this site, cookies collect data to enhance your experience and personalize the content and advertising you see.
Visit our Privacy Policy to learn more. By continuing to use the site, you agree to this use of cookies and data.
  • în România
  • Lista ţărilor
  • Pe 7 zile
  • Temperatura apei
  • Meteo pe hartă
  • Widget-uri
  • user-avatar
    Intrare

    Meteo pe oră la Kurytyba

    Astăzi, 20 Septembrie, Vineri

    Timp Temperatura Precipitaţii Vânt Presiune Umiditate
    00:00 +20°C° 1.6 mm 1 m/s 678 mmHg 96%
    01:00 +20°C° 3.6 mm 1 m/s 678 mmHg 95%
    02:00 +20°C° 3.6 mm 1 m/s 678 mmHg 95%
    03:00 +19°C° 3.6 mm 2 m/s 678 mmHg 94%
    04:00 +20°C° 2.5 mm 1 m/s 678 mmHg 94%
    05:00 +20°C° 2.5 mm 1 m/s 678 mmHg 95%
    06:00 +18°C° 2.5 mm 0 m/s 678 mmHg 96%
    07:00 +18°C° 0.4 mm 0 m/s 679 mmHg 94%
    08:00 +19°C° 0.4 mm 0 m/s 679 mmHg 92%
    09:00 +19°C° 0.4 mm 0 m/s 680 mmHg 91%
    10:00 +19°C° 0.9 mm 0 m/s 680 mmHg 91%
    11:00 +20°C° 0.9 mm 0 m/s 680 mmHg 91%
    12:00 +20°C° 0.9 mm 0 m/s 680 mmHg 91%
    13:00 +22°C° 0.3 mm 1 m/s 680 mmHg 90%
    14:00 +23°C° 0.3 mm 1 m/s 680 mmHg 88%
    15:00 +23°C° 0.3 mm 2 m/s 680 mmHg 87%
    16:00 +20°C° 1 mm 2 m/s 680 mmHg 89%
    17:00 +19°C° 1 mm 2 m/s 681 mmHg 92%
    18:00 +17°C° 1 mm 3 m/s 681 mmHg 94%
    19:00 +16°C° 0.6 mm 3 m/s 681 mmHg 94%
    20:00 +14°C° 0.6 mm 3 m/s 682 mmHg 94%
    21:00 +12°C° 0.6 mm 3 m/s 682 mmHg 94%
    22:00 +12°C° 0.2 mm 3 m/s 682 mmHg 94%
    23:00 +12°C° 0.2 mm 3 m/s 683 mmHg 94%

    Mâine, 21 Septembrie, Sâmbătă

    Timp Temperatura Precipitaţii Vânt Presiune Umiditate
    00:00 +13°C° 0.2 mm 2 m/s 683 mmHg 94%
    01:00 +14°C° 0.1 mm 2 m/s 683 mmHg 94%
    02:00 +14°C° 0.1 mm 2 m/s 682 mmHg 94%
    03:00 +14°C° 0.1 mm 2 m/s 682 mmHg 94%
    04:00 +14°C° 0.2 mm 2 m/s 682 mmHg 94%
    05:00 +14°C° 0.2 mm 2 m/s 683 mmHg 94%
    06:00 +14°C° 0.2 mm 2 m/s 683 mmHg 94%
    07:00 +14°C° 0.2 mm 2 m/s 683 mmHg 94%
    08:00 +15°C° 0.2 mm 2 m/s 683 mmHg 93%
    09:00 +15°C° 0.2 mm 2 m/s 684 mmHg 93%
    10:00 +15°C° 0.6 mm 2 m/s 684 mmHg 93%
    11:00 +15°C° 0.6 mm 2 m/s 684 mmHg 94%
    12:00 +14°C° 0.6 mm 2 m/s 684 mmHg 94%
    13:00 +15°C° 0.1 mm 2 m/s 683 mmHg 93%
    14:00 +15°C° 0.1 mm 2 m/s 683 mmHg 93%
    15:00 +15°C° 0.1 mm 2 m/s 683 mmHg 92%
    16:00 +14°C° 0 mm 2 m/s 683 mmHg 93%
    17:00 +14°C° 0 mm 2 m/s 683 mmHg 94%
    18:00 +14°C° 0 mm 2 m/s 683 mmHg 95%
    19:00 +14°C° 0 mm 2 m/s 683 mmHg 95%
    20:00 +13°C° 0 mm 2 m/s 684 mmHg 95%
    21:00 +13°C° 0 mm 2 m/s 684 mmHg 95%
    22:00 +13°C° 0 mm 1 m/s 684 mmHg 96%
    23:00 +13°C° 0 mm 1 m/s 684 mmHg 96%

    Poimâine, 22 Septembrie, Duminică

    Timp Temperatura Precipitaţii Vânt Presiune Umiditate
    00:00 +13°C° 0 mm 1 m/s 684 mmHg 96%
    01:00 +13°C° 0 mm 1 m/s 684 mmHg 96%
    02:00 +13°C° 0 mm 1 m/s 683 mmHg 95%
    03:00 +13°C° 0 mm 1 m/s 683 mmHg 95%
    04:00 +13°C° 0 mm 1 m/s 684 mmHg 95%
    05:00 +13°C° 0 mm 1 m/s 684 mmHg 94%
    06:00 +14°C° 0 mm 1 m/s 684 mmHg 94%
    07:00 +14°C° 0 mm 1 m/s 685 mmHg 93%
    08:00 +14°C° 0 mm 2 m/s 685 mmHg 92%
    09:00 +14°C° 0 mm 2 m/s 686 mmHg 91%
    10:00 +14°C° 0 mm 2 m/s 686 mmHg 90%
    11:00 +15°C° 0 mm 2 m/s 686 mmHg 89%
    12:00 +15°C° 0 mm 2 m/s 686 mmHg 88%
    13:00 +15°C° 0 mm 2 m/s 686 mmHg 88%
    14:00 +15°C° 0 mm 2 m/s 686 mmHg 87%
    15:00 +15°C° 0 mm 2 m/s 685 mmHg 87%
    16:00 +14°C° 0 mm 2 m/s 686 mmHg 88%
    17:00 +13°C° 0 mm 3 m/s 686 mmHg 89%
    18:00 +12°C° 0 mm 3 m/s 686 mmHg 90%
    19:00 +12°C° 0 mm 3 m/s 687 mmHg 89%
    20:00 +12°C° 0 mm 3 m/s 687 mmHg 88%
    21:00 +12°C° 0 mm 3 m/s 687 mmHg 87%
    22:00 +11°C° 0 mm 3 m/s 687 mmHg 87%
    23:00 +11°C° 0 mm 3 m/s 687 mmHg 87%

    23 Septembrie, Luni

    Timp Temperatura Precipitaţii Vânt Presiune Umiditate
    00:00 +11°C° 0 mm 3 m/s 687 mmHg 87%
    01:00 +10°C° 0 mm 3 m/s 687 mmHg 88%
    02:00 +10°C° 0 mm 3 m/s 687 mmHg 88%
    03:00 +10°C° 0 mm 3 m/s 686 mmHg 88%
    04:00 +9°C° 0 mm 3 m/s 686 mmHg 88%
    05:00 +9°C° 0 mm 3 m/s 686 mmHg 88%
    06:00 +9°C° 0 mm 3 m/s 686 mmHg 88%
    07:00 +9°C° 0 mm 3 m/s 687 mmHg 85%
    08:00 +10°C° 0 mm 3 m/s 687 mmHg 82%
    09:00 +10°C° 0 mm 3 m/s 687 mmHg 79%
    10:00 +11°C° 0 mm 3 m/s 687 mmHg 76%
    11:00 +12°C° 0 mm 3 m/s 687 mmHg 72%
    12:00 +13°C° 0 mm 3 m/s 687 mmHg 69%
    13:00 +14°C° 0 mm 3 m/s 687 mmHg 69%
    14:00 +14°C° 0 mm 3 m/s 686 mmHg 70%
    15:00 +14°C° 0 mm 3 m/s 686 mmHg 70%
    16:00 +13°C° 0 mm 3 m/s 686 mmHg 75%
    17:00 +13°C° 0 mm 2 m/s 686 mmHg 80%
    18:00 +12°C° 0 mm 2 m/s 685 mmHg 85%
    19:00 +12°C° 0 mm 2 m/s 686 mmHg 87%
    20:00 +10°C° 0 mm 2 m/s 686 mmHg 89%
    21:00 +10°C° 0 mm 2 m/s 686 mmHg 91%
    22:00 +10°C° 0 mm 2 m/s 685 mmHg 92%
    23:00 +11°C° 0 mm 1 m/s 685 mmHg 93%

    24 Septembrie, Marţi

    Timp Temperatura Precipitaţii Vânt Presiune Umiditate
    00:00 +11°C° 0 mm 1 m/s 685 mmHg 94%
    01:00 +12°C° 0 mm 1 m/s 684 mmHg 94%
    02:00 +12°C° 0 mm 1 m/s 684 mmHg 94%
    03:00 +12°C° 0 mm 1 m/s 683 mmHg 94%
    04:00 +12°C° 0 mm 1 m/s 683 mmHg 94%
    05:00 +13°C° 0 mm 1 m/s 682 mmHg 93%
    06:00 +13°C° 0 mm 1 m/s 682 mmHg 93%
    07:00 +13°C° 0.1 mm 1 m/s 682 mmHg 92%
    08:00 +13°C° 0.1 mm 0 m/s 683 mmHg 90%
    09:00 +14°C° 0.1 mm 0 m/s 683 mmHg 89%
    10:00 +14°C° 0.6 mm 0 m/s 682 mmHg 90%
    11:00 +15°C° 0.6 mm 1 m/s 682 mmHg 92%
    12:00 +15°C° 0.6 mm 1 m/s 682 mmHg 93%
    13:00 +15°C° 3.5 mm 1 m/s 682 mmHg 94%
    14:00 +14°C° 3.5 mm 1 m/s 681 mmHg 96%
    15:00 +14°C° 3.5 mm 1 m/s 681 mmHg 97%
    16:00 +14°C° 0.6 mm 1 m/s 681 mmHg 97%
    17:00 +14°C° 0.6 mm 1 m/s 681 mmHg 96%
    18:00 +14°C° 0.6 mm 1 m/s 681 mmHg 96%
    19:00 +14°C° 0 mm 1 m/s 682 mmHg 96%
    20:00 +14°C° 0 mm 1 m/s 682 mmHg 96%
    21:00 +14°C° 0 mm 1 m/s 682 mmHg 96%
    22:00 +13°C° 0 mm 1 m/s 682 mmHg 96%
    23:00 +13°C° 0 mm 1 m/s 682 mmHg 97%

    25 Septembrie, Miercuri

    Timp Temperatura Precipitaţii Vânt Presiune Umiditate
    00:00 +13°C° 0 mm 1 m/s 682 mmHg 97%
    01:00 +13°C° 0.1 mm 2 m/s 682 mmHg 96%
    02:00 +13°C° 0.1 mm 2 m/s 682 mmHg 95%
    03:00 +12°C° 0.1 mm 3 m/s 682 mmHg 94%
    04:00 +12°C° 0.1 mm 3 m/s 682 mmHg 93%
    05:00 +12°C° 0.1 mm 3 m/s 682 mmHg 93%
    06:00 +11°C° 0.1 mm 3 m/s 682 mmHg 92%
    07:00 +12°C° 0.1 mm 3 m/s 683 mmHg 88%
    08:00 +12°C° 0.1 mm 3 m/s 683 mmHg 84%
    09:00 +13°C° 0.1 mm 3 m/s 684 mmHg 80%
    10:00 +14°C° 0 mm 3 m/s 684 mmHg 73%
    11:00 +17°C° 0 mm 3 m/s 685 mmHg 67%
    12:00 +18°C° 0 mm 3 m/s 685 mmHg 60%
    13:00 +18°C° 0.1 mm 3 m/s 685 mmHg 62%
    14:00 +18°C° 0.1 mm 3 m/s 685 mmHg 63%
    15:00 +18°C° 0.1 mm 3 m/s 684 mmHg 64%
    16:00 +17°C° 0.1 mm 3 m/s 684 mmHg 71%
    17:00 +14°C° 0.1 mm 3 m/s 684 mmHg 78%
    18:00 +13°C° 0.1 mm 3 m/s 684 mmHg 84%
    19:00 +12°C° 0 mm 3 m/s 684 mmHg 86%
    20:00 +11°C° 0 mm 3 m/s 684 mmHg 87%
    21:00 +10°C° 0 mm 3 m/s 684 mmHg 88%
    22:00 +10°C° 0 mm 2 m/s 684 mmHg 89%
    23:00 +9°C° 0 mm 2 m/s 684 mmHg 90%
    Arată mai mult